[[{"header":{"parameterUnit":"m.s-1","parameterCategory":1,"la1":30.2991,"la2":30.254,"lo1":-89.0895,"lo2":-89.0444,"dy":0.0017,"dx":0.0017,"nx":28,"ny":28,"refTime":"2024-09-27T09:00:00:Z","depth":0,"parameterNumber":2,"parameterNumberName":"U-component_of_WINDS"},"data":[0,0,0,0,0,0,0,0,0,0,0,0,0,0,0,0,0,0,0,0,0,0,0,0,0,0,0,0,0,0,0,0,0,0,0,0,0,0,0,0,0,0,0,0,0,0,0,0,0,0,0,0,0,0,0,0,0,0,5.3783,5.3784,0,5.3851,5.3852,5.3853,5.383,5.3828,5.3827,5.3825,5.3896,5.3899,5.3903,0,0,0,0,0,0,0,0,0,0,0,0,0,5.3633,5.3636,5.3783,5.3784,5.3784,5.3851,5.3852,5.3853,5.383,5.3828,5.3826,5.3824,5.3895,5.3899,5.3903,0,0,0,0,0,0,0,0,0,0,0,0,0,5.37,5.3637,5.3783,5.3781,5.3781,5.3851,5.3852,5.3853,5.383,5.3828,5.3826,5.3824,5.3894,5.3899,5.3904,5.3979,0,0,5.3919,5.3921,0,0,0,0,0,0,0,0,5.3696,5.3705,5.378,5.3781,5.3782,5.383,5.3825,5.3896,5.3831,5.3812,5.3825,5.3823,5.3876,5.3882,5.39,5.3983,5.3986,5.3919,5.3922,5.3924,5.3926,0,0,0,0,0,0,0,5.3691,5.3702,5.381,5.3781,5.3782,5.3777,5.3784,5.3839,5.3856,5.3813,5.3812,5.382,5.3876,5.3895,5.3902,5.3987,5.3919,5.3923,5.3926,5.3928,5.4136,5.4138,0,0,0,0,0,0,5.3686,5.3698,5.3808,5.3812,5.3732,5.3782,5.379,5.3817,5.3855,5.3859,5.3822,5.3819,5.3888,5.3896,5.3904,5.3995,5.3924,5.3929,5.3932,5.4133,5.4136,5.4139,0,0,0,0,0,0,5.3683,5.3696,5.3805,5.3755,5.3768,5.3787,5.3817,5.3819,5.3838,5.3862,5.3865,5.3838,5.3887,5.3897,5.3961,5.3997,5.3931,5.3936,5.413,5.4134,5.4138,5.4178,0,0,0,0,0,0,5.3679,5.3695,5.3723,5.3756,5.3771,5.386,5.382,5.3822,5.3847,5.3843,5.3878,5.3882,5.3886,5.3954,5.3966,5.4003,5.3939,5.4127,5.4132,5.4136,5.4173,5.4182,5.419,0,0,0,0,0,5.3674,5.3732,5.3725,5.3738,5.3807,5.3862,5.3871,5.3874,5.385,5.3879,5.3894,5.388,5.3992,5.396,5.3974,5.4013,5.4125,5.413,5.4136,5.4169,5.418,5.419,0,0,0,0,0,0,5.3703,5.3736,5.3729,5.3799,5.3828,5.3858,5.3894,5.3886,5.3922,5.3918,5.3921,5.3929,5.3994,5.401,5.3975,5.4089,5.4055,5.4063,5.4075,5.4086,5.4095,5.4089,5.3944,0,0,0,0,0,5.3718,5.376,5.3787,5.3847,5.3861,5.3876,5.39,5.39,5.393,5.3942,5.3962,5.3992,5.4034,5.4061,5.4101,5.4176,5.4183,5.421,5.4218,5.4225,5.4232,5.4274,5.4286,5.4158,5.4158,5.4157,0,0,5.3749,5.3772,5.3798,5.3853,5.3875,5.3919,5.3886,5.3933,5.3966,5.395,5.401,5.4027,5.4061,5.413,5.4162,5.4146,5.427,5.4233,5.4238,5.4241,5.4281,5.4293,5.4303,5.4162,5.4161,5.416,0,0,5.3827,5.3849,5.3901,5.3925,5.3959,5.3969,5.3982,5.4013,5.4023,5.4085,5.4074,5.4113,5.4185,5.4209,5.4231,5.4322,5.431,5.4335,5.4379,5.4419,5.4429,5.4438,5.4469,5.4481,5.4342,5.4342,5.4342,0,5.3861,5.3926,5.3929,5.3978,5.4003,5.3991,5.4044,5.4066,5.4112,5.413,5.4111,5.4201,5.4223,5.4299,5.4321,5.434,5.4354,5.433,5.4427,5.4436,5.4445,5.4475,5.4487,5.4345,5.4344,5.4344,5.4344,0,5.3966,5.4011,5.405,5.4094,5.4123,5.4174,5.4186,5.4215,5.4213,5.4225,5.4289,5.4315,5.436,5.4378,5.4377,5.4454,5.4443,5.4426,5.4391,5.4459,5.4488,5.4499,5.4348,5.4347,5.4347,5.4346,0,0,5.4063,5.411,5.4124,5.4144,5.4182,5.4217,5.4268,5.4312,5.4337,5.437,5.4413,5.4475,5.446,5.4485,5.4487,5.4522,5.4592,5.4501,5.4502,5.4516,5.4678,5.4689,5.4703,5.4585,5.4588,5.4589,5.4675,0,5.4143,5.4232,5.4237,5.4317,5.436,5.435,5.4394,5.4423,5.4436,5.4474,5.4489,5.4532,5.4509,5.4524,5.4559,5.4576,5.4624,5.457,5.4625,5.4627,5.4615,5.4717,5.473,5.4809,5.4686,5.4688,5.4689,0,5.4248,5.4284,5.4369,5.4402,5.442,5.4459,5.4501,5.4538,5.457,5.4577,5.4606,5.4604,5.4657,5.4622,5.4695,5.4658,5.4682,5.4694,5.4697,5.47,5.4661,5.4723,5.4834,5.4845,5.4707,5.4705,5.4704,0,5.4309,5.4379,5.4439,5.4457,5.4497,5.4525,5.4543,5.4574,5.4601,5.4637,5.4654,5.4697,5.472,5.4754,5.4763,5.4737,5.4836,5.4802,5.4843,5.4843,5.4862,5.4861,5.4977,5.488,5.488,5.488,5.488,0,5.4398,5.445,5.4467,5.4503,5.4562,5.4568,5.4626,5.4643,5.467,5.471,5.4705,5.4743,5.4754,5.4794,5.4802,5.4861,5.4872,5.4879,5.488,5.4879,5.4878,5.4893,5.4887,5.4883,5.4882,5.4882,5.4881,0,5.4474,5.4488,5.4552,5.4586,5.4596,5.4637,5.4666,5.4701,5.4714,5.4765,5.4778,5.4798,5.4845,5.4859,5.4915,5.4921,5.499,5.4987,5.4978,5.4978,5.5018,5.5013,5.5147,5.5164,5.5057,5.5058,5.5059,0,5.4529,5.4569,5.4607,5.4633,5.4653,5.4695,5.4722,5.4731,5.476,5.4801,5.4832,5.4879,5.4916,5.4992,5.5012,5.5056,5.5053,5.5097,5.5059,5.5056,5.5052,5.5049,5.5053,5.5103,5.5104,5.5105,5.5106,0,5.4624,5.463,5.4669,5.4711,5.4743,5.4777,5.4809,5.4831,5.4845,5.4878,5.4926,5.4955,5.5013,5.5059,5.5104,5.5123,5.5117,5.5118,5.5129,5.5127,5.512,5.5123,5.4996,5.5114,5.5113,5.5113,5.5112,5.5112,5.4691,5.4726,5.4758,5.4802,5.4828,5.4858,5.4893,5.4911,5.4951,5.4999,5.5003,5.5054,5.5088,5.5147,5.5169,5.521,5.5197,5.5214,5.5218,5.5222,5.5224,5.5115,5.5218,5.5218,5.5218,5.5218,5.5218,0,5.4785,5.4806,5.4846,5.4892,5.4927,5.4919,5.4955,5.4984,5.503,5.5062,5.5099,5.5154,5.52,5.5224,5.527,5.5298,5.5296,5.5309,5.5306,5.5311,5.5234,5.5219,5.531,5.531,5.531,5.531,5.531,5.531,5.4838,5.4896,5.4906,5.4978,5.4998,5.5049,5.507,5.5098,5.5124,5.5186,5.5223,5.5239,5.5268,5.5316,5.5357,5.5364,5.538,5.5394,5.5399,5.5326,5.5316,5.5307,5.5293,5.5398,5.5398,5.5472,5.5473,5.5473]},{"header":{"parameterUnit":"m.s-1","parameterCategory":1,"la1":30.2991,"la2":30.254,"lo1":-89.0895,"lo2":-89.0444,"dy":0.0017,"dx":0.0017,"nx":28,"ny":28,"refTime":"2024-09-27T09:00:00:Z","depth":0,"parameterNumber":3,"parameterNumberName":"V-component_of_WINDS"},"data":[0,0,0,0,0,0,0,0,0,0,0,0,0,0,0,0,0,0,0,0,0,0,0,0,0,0,0,0,0,0,0,0,0,0,0,0,0,0,0,0,0,0,0,0,0,0,0,0,0,0,0,0,0,0,0,0,0,0,3.2415,3.2417,0,3.256,3.2562,3.2564,3.2616,3.2615,3.2615,3.2614,3.2763,3.2767,3.2771,0,0,0,0,0,0,0,0,0,0,0,0,0,3.2183,3.2187,3.2415,3.2417,3.2419,3.256,3.2562,3.2564,3.2616,3.2615,3.2615,3.2614,3.2761,3.2766,3.2772,0,0,0,0,0,0,0,0,0,0,0,0,0,3.2301,3.2188,3.2415,3.2462,3.2467,3.256,3.2562,3.2565,3.2616,3.2615,3.2615,3.2614,3.2759,3.2766,3.2772,3.2829,0,0,3.2793,3.2796,0,0,0,0,0,0,0,0,3.2295,3.231,3.2453,3.2459,3.2465,3.2569,3.2535,3.2653,3.2616,3.256,3.2614,3.2614,3.2699,3.271,3.2739,3.2835,3.2842,3.2793,3.2797,3.28,3.2802,0,0,0,0,0,0,0,3.2286,3.2304,3.2473,3.2455,3.2463,3.2476,3.2492,3.2557,3.2632,3.2565,3.2569,3.2585,3.2702,3.2733,3.2743,3.2844,3.2793,3.2799,3.2803,3.2806,3.2995,3.2996,0,0,0,0,0,0,3.227,3.2297,3.2468,3.2477,3.2376,3.248,3.2498,3.2537,3.2631,3.2645,3.2586,3.2587,3.2722,3.2735,3.2749,3.2822,3.28,3.2806,3.281,3.2994,3.2995,3.2996,0,0,0,0,0,0,3.2265,3.2285,3.2462,3.2388,3.2412,3.2485,3.2528,3.254,3.2571,3.2647,3.2661,3.2603,3.2722,3.2739,3.2809,3.2827,3.2809,3.2815,3.2993,3.2994,3.2996,3.2967,0,0,0,0,0,0,3.2258,3.2283,3.2305,3.2388,3.2415,3.252,3.2529,3.2543,3.2582,3.2585,3.2667,3.268,3.2723,3.2798,3.2815,3.2836,3.282,3.2991,3.2993,3.2995,3.2967,3.2967,3.2968,0,0,0,0,0,3.225,3.2291,3.2306,3.2326,3.2445,3.2521,3.2536,3.2584,3.2583,3.2606,3.2656,3.2678,3.2822,3.2805,3.2824,3.2848,3.299,3.2993,3.2995,3.2966,3.2967,3.2968,0,0,0,0,0,0,3.2207,3.2302,3.232,3.2389,3.2447,3.2529,3.2559,3.2583,3.2642,3.2642,3.2699,3.2717,3.2782,3.2822,3.2801,3.2908,3.2908,3.2914,3.2879,3.2881,3.2881,3.2871,3.2826,0,0,0,0,0,3.2206,3.226,3.234,3.2393,3.2421,3.2485,3.252,3.2552,3.2614,3.2638,3.2692,3.2751,3.281,3.2848,3.2906,3.2972,3.2992,3.2998,3.2999,3.2999,3.3004,3.3043,3.3047,3.3004,3.3004,3.3004,0,0,3.2204,3.2262,3.2293,3.2386,3.2434,3.2489,3.2505,3.2562,3.2603,3.2647,3.2716,3.2758,3.2827,3.2895,3.2928,3.293,3.302,3.3002,3.3002,3.3007,3.3046,3.305,3.3054,3.3006,3.3005,3.3005,0,0,3.2228,3.2277,3.2328,3.2376,3.2449,3.2491,3.2503,3.2583,3.2612,3.2682,3.2716,3.2766,3.2866,3.2915,3.2952,3.2996,3.3019,3.3013,3.3017,3.3054,3.3058,3.3061,3.3077,3.3083,3.3017,3.3017,3.3017,0,3.2216,3.23,3.235,3.2406,3.2446,3.2488,3.254,3.2584,3.2672,3.2699,3.27,3.2827,3.2877,3.2958,3.2968,3.2997,3.3013,3.3004,3.3053,3.3057,3.3061,3.3077,3.3083,3.3016,3.3016,3.3017,3.3017,0,3.2282,3.2339,3.2371,3.2456,3.25,3.2553,3.2612,3.265,3.2678,3.2721,3.2792,3.2853,3.2925,3.2947,3.2975,3.3032,3.3031,3.3042,3.3044,3.3063,3.3079,3.3086,3.3015,3.3015,3.3015,3.3016,0,0,3.2283,3.2395,3.2406,3.2445,3.2529,3.2575,3.263,3.2701,3.2733,3.2792,3.2841,3.2925,3.2936,3.2978,3.3012,3.3045,3.3077,3.3052,3.3055,3.3055,3.3145,3.3137,3.3143,3.3092,3.3094,3.3095,3.3139,0,3.2318,3.2419,3.2467,3.2547,3.2601,3.2642,3.2691,3.2747,3.2789,3.2841,3.2887,3.2946,3.2955,3.2981,3.3016,3.3065,3.3096,3.3063,3.3138,3.314,3.312,3.3151,3.3143,3.3182,3.3146,3.3147,3.3148,0,3.2373,3.2433,3.2518,3.2597,3.2621,3.2664,3.2733,3.2782,3.2848,3.2876,3.2924,3.2957,3.3017,3.3014,3.3099,3.3075,3.3109,3.3138,3.3141,3.315,3.3145,3.3162,3.3195,3.3201,3.3158,3.3157,3.3157,0,3.2365,3.2468,3.2532,3.2565,3.2657,3.2687,3.2727,3.2792,3.2831,3.2892,3.2919,3.2985,3.3021,3.3072,3.3123,3.3116,3.3203,3.3204,3.3228,3.3227,3.3245,3.3243,3.3284,3.3265,3.3265,3.3265,3.3265,0,3.24,3.2451,3.2531,3.257,3.2629,3.2683,3.274,3.2783,3.284,3.289,3.2929,3.2974,3.3038,3.3091,3.3131,3.3196,3.3212,3.3236,3.3246,3.3233,3.323,3.3256,3.3255,3.3267,3.3266,3.3266,3.3266,0,3.2402,3.2457,3.2531,3.2613,3.2635,3.2674,3.2745,3.2786,3.2829,3.2891,3.2909,3.2977,3.3042,3.3098,3.3183,3.321,3.3277,3.3289,3.3255,3.326,3.3282,3.328,3.3342,3.3354,3.3326,3.3326,3.3326,0,3.2421,3.2461,3.2548,3.2584,3.2624,3.2681,3.2722,3.2777,3.2819,3.2897,3.2928,3.2996,3.3054,3.3156,3.3214,3.328,3.3294,3.3311,3.3304,3.329,3.3295,3.3293,3.3298,3.3312,3.3312,3.3312,3.3312,0,3.2448,3.2474,3.2532,3.26,3.2648,3.2704,3.2761,3.2788,3.2854,3.2898,3.2966,3.301,3.3099,3.3166,3.3239,3.328,3.3308,3.3314,3.3323,3.331,3.329,3.3302,3.3257,3.3312,3.3312,3.3312,3.3312,3.3312,3.246,3.2498,3.2566,3.2629,3.2678,3.2731,3.2773,3.2822,3.288,3.2956,3.2985,3.3054,3.312,3.322,3.3262,3.3318,3.3321,3.3335,3.3338,3.3341,3.3339,3.328,3.3331,3.3331,3.3331,3.3331,3.3331,0,3.249,3.2536,3.2594,3.2673,3.2723,3.2744,3.2809,3.285,3.291,3.2969,3.3025,3.3103,3.3169,3.3232,3.3302,3.3334,3.3349,3.3351,3.3349,3.3359,3.3331,3.3317,3.3338,3.3338,3.3338,3.3338,3.3338,3.3338,3.2512,3.2578,3.2612,3.2703,3.2749,3.2817,3.2852,3.2901,3.2949,3.3034,3.309,3.313,3.3192,3.3266,3.3328,3.3345,3.3369,3.3368,3.3388,3.3362,3.336,3.3359,3.3346,3.3373,3.3373,3.3411,3.3411,3.3412]}]]